Flag for Switzerland Weather past 2 weeks in Sion, Valais, Switzerland

Now
62 °F

Mild.


Feels Like: 62 °F
Forecast: 55 / 85 °F
Wind: 2 mph from Southwest

Location: Sion

Current Time: Jul 30, 2015 at 10:34:03 AM

Latest Report: Jul 30, 2015 at 9:00 AM


Visibility: N/A

Pressure: 29.97 "Hg (28.21 "Hg at 514m altitude)

Humidity: 64%

Dew point: 50 °F

Location of SionLocation

Historic Weather in Sion — Graph

°F

Sion temperature yesterday

Maximum temperature yesterday: 72 °F (at 11:00 AM)
Minimum temperature yesterday: 64 °F (at 7:00 AM)
Average temperature yesterday: 68 °F

Past Weeks' High & Low Weather Summary

 TemperatureHumidityPressure
High96 °F (Jul 16, 6:00 PM)97% (Jul 25, 4:00 AM)30.18 "Hg (Jul 25, 4:00 AM)
Low54 °F (Jul 26, 6:00 AM)19% (Jul 16, 9:00 PM)29.61 "Hg (Jul 24, 5:00 PM)
Average74 °F59%29.92 "Hg
* Reported Jul 15 9:00 AM — Jul 30 9:00 AM, Sion, Weather by CustomWeather, © 2015

Note: Actual official high and low records may vary slightly from our data, if they occured in-between our weather recording intervals... More about our weather records

Advertising

Sion weather history for previous 24 hours

 ConditionsComfort  
Time TempWeatherWind HumidityBarometerVisibility
9:00 AM
Thu, Jul 30
62 °FMild.2 mph64%29.97 "HgN/A
8:00 AM60 °FPartly sunny.2 mph68%29.98 "Hg12 mi
7:00 AM59 °FCool.1 mph71%29.96 "HgN/A
6:00 AM60 °FCool.5 mph70%29.96 "HgN/A
5:00 AM60 °FOvercast.7 mph71%29.94 "Hg12 mi
4:00 AM61 °FCool.5 mph75%29.93 "HgN/A
3:00 AM61 °FCool.9 mph75%29.94 "HgN/A
2:00 AM62 °FLight rain. Overcast.12 mph75%29.93 "Hg12 mi
1:00 AM62 °FMild.7 mph77%29.93 "HgN/A
12:00 AM64 °FMild.6 mph77%29.91 "HgN/A
11:00 PM
Wed, Jul 29
65 °FOvercast.5 mph75%29.90 "Hg12 mi
10:00 PM64 °FMild.3 mph81%29.90 "HgN/A
9:00 PM66 °FMild.9 mph75%29.89 "HgN/A
8:00 PM67 °FOvercast.9 mph80%29.87 "Hg19 mi
7:00 PM69 °FMild.2 mph76%29.86 "HgN/A
6:00 PM68 °FMild.5 mph76%29.87 "HgN/A
5:00 PM67 °FMild.3 mph82%29.89 "HgN/A
4:00 PM67 °FMild.2 mph79%29.88 "HgN/A
3:00 PM68 °FMild.3 mph75%29.85 "HgN/A
2:00 PM71 °FOvercast.5 mph57%29.81 "Hg12 mi
1:00 PM68 °FMild.3 mph64%29.82 "HgN/A
12:00 PM72 °FMild.6 mph53%29.80 "HgN/A
11:00 AM72 °FPartly sunny.8 mph47%29.80 "Hg16 mi
10:00 AM69 °FMild.1 mph53%29.81 "HgN/A
Weather by CustomWeather, © 2015

See weather overviewHow to use our weather pages